Погода в Пинске

Погода в Пинске : погода сейчас, прогноз погоды и архив. Всё, что Вы хотите узнать о погоде в Пинске!

Хотите узнать прогноз погоды в Пинске? Тогда Вам сюда: Погода в Пинске

Поиск расширенной информации на нашем сайте:

Другие новости

Новости СМИ2

Главная страница сайта

Новости сайта

03.07.2017

Напоминаем, что на нашем специализированном сайте Метеоцентр.Азия вы можете получить высокодетализированные автоматические прогнозы погоды по пунктам России, СНГ и мира в авиационном формате (включающие направление и скорость ветра, видимость, явления погоды, количество и форму облачности, нижнюю и верхнюю границу облачности).


Погода в Пинске - сегодня

Время (UTC), дата Ветер
(°,м/с) 
Видим.   Явления Облачность Т
(°С)
Тd
(°С)
f(%) Тe
(°С)
Pmin
(гПа)
dP
(гПа)
Po
(мм)
O2
(г/м3)
Тmin Tmax R s Состояние
почвы
15 20.09.18 310 (СЗ) 20000 м    ясно 
+26.8 +11.7 39 +30  1018.8  -0.8  752  274           
18 20.09.18 тихо ()   10 км    ясно 
+15.5 +13.2 86 +21  1019.8  0.2  752  284    +27.7       
21 20.09.18 тихо ()   10 км    ясно 
+13.9 +11.8 87 +17  1019.8  -0.1  752  286           
00 21.09.18 тихо ()   9000 м  дымка  ясно 
+12.1 +10.9 92 +14  1019.9  752  288           
03 21.09.18 210 (ЮЗ) 9000 м  дымка  ясно 
+11.7 +10.4 92 +15  1020  0.1  752  289           
06 21.09.18 230 (ЮЗ) 10 км    ясно 
+16.2 +11.1 72 +21  1019.6  -0.1  752  284  +9.9         
09 21.09.18 170 (Ю) 15000 м    ясно 
+24.6 +13.8 51 +31  1018.6  -0.5  752  275           
12 21.09.18 190 (Ю) 20000 м    8/6 1000 м верхняя 
[Cu hum|Ci fib]
+27 +13.2 43 +33  1016.6  -1.8  750  273           
15 21.09.18 220 (ЮЗ) 20000 м    3/0 верхняя 
[Ci fib]
+26.2 +11.5 40 +29  1014.6  -2  749  273           
18 21.09.18 220 (ЮЗ) 10 км    3/0 верхняя 
[Ci fib]
+20.5 +11.5 56 +24  1013.8  -1.2  748  278    +27.5       
21 21.09.18 220 (ЮЗ) 10 км    ясно 
+16.1 +10.3 68 +19  1013.4  -0.6  748  283           
00 22.09.18 220 (ЮЗ) 10 км    ясно 
+14.6 +9.3 70 +15  1012.1  -1.4  746  284           
03 22.09.18 220 (ЮЗ) 10 км    ясно 
+13.5 +9.1 75 +14  1010.9  -1.3  746  285           
06 22.09.18 280 (З) 12000 м    10/0 средняя, верхняя 
[Ac trans|Ci fib]
+15.7 +10.9 73 +18  1011  0.3  746  282  +12.4         
09 22.09.18 010 (С) 4{14}  10 км    9/0 средняя 
[Ac und]
+14.3 +11 81 +17  1015.3  4.1  749  285           
12 22.09.18 300 (СЗ) 8000 м  слаб. ливневой дождь  10/10 480 м кучево-дожд. 
[Cb calv]
+12 +10.5 91 +14  1018  2.5  751  288         
15 22.09.18 300 (СЗ) 6000 м  в посл. час ливневой дождь  10/10 270 м 
[St]
+11.5 +10.5 94 +14  1017.8  -0.2  751  288         
18 22.09.18 300 (СЗ) 9000 м  дымка{ливн. осадки}  10/10 360 м 
[St]
+10.5 +8.9 90 +10  1017.5  -0.4  750  290    +17.6     
21 22.09.18 300 (СЗ) 7000 м  дымка  4/0 средняя, верхняя 
[Ac trans|Ci fib]
+9.5 +8.2 92 +9  1016.7  -0.8  750  290           
00 23.09.18 310 (СЗ) 3800 м  дымка  9/9 600 м 
[Sc]
+8.4 +7.6 95 +7  1016.9  0.1  750  292           
03 23.09.18 300 (СЗ) 3700 м  дымка  9/9 840 м 
[Sc]
+7.5 +6.9 96 +7  1016.7  -0.3  749  293           
06 23.09.18 290 (З) 8000 м  дымка  8/0 средняя, верхняя 
[Ac trans|Ci fib]
+8.1 +7.1 93 +8  1016.4  -0.2  749  292  +6.3         
09 23.09.18 330 (СЗ) 15000 м    4/0 средняя 
[Ac trans]
+15.4 +8.6 64 +16  1015.4  -0.5  749  284           
12 23.09.18 330 (СЗ) 3{10}  10 км    10/6 800 м средняя, верхняя 
[Sc|Ac trans|Ci fib]
+16.8 +5.3 47 +17  1014.6  -0.7  748  283           
15 23.09.18 300 (СЗ) 3{11}  9000 м  слаб. ливневой дождь  10/10 420 м кучево-дожд. 
[Cb calv]
+12.2 +8.5 78 +12  1014.3  -0.6  748  287      0.3     
Время (UTC), дата Ветер
(°,м/с) 
Видим.   Явления Облачность Т
(°С)
Тd
(°С)
f(%) Тe
(°С)
Pmin
(гПа)
dP
(гПа)
Po
(мм)
O2
(г/м3)
Тmin Tmax R s Состояние
почвы

Для получения пояснительной информации подведите курсор к названию столбца.

ПОГОДА в Пинске - архив

Всё, что Вы хотите узнать о погоде в Пинске - удобно и подробно!

Выберите нужную дату (начиная с 1 января 2015* года) и нажмите кнопку "Найти".
Будут отображены архивные сводки погоды по пункту Пинск, начиная с указанной даты.


Отображать данные в формате CSV (для использования в таблицах Excel)


Внимание! Наш архив погоды предназначен исключительно для личного некоммерческого использования в познавательных целях. Если Вам необходимы официальные справки о состоянии погоды (для производственных, юридических, коммерческих и т.п. целей), обращайтесь в органы Росгидромета.

*Примечание: данная дата относится к архиву по метеостанциям СССР (Россия, СНГ, Балтия).
Архив по метеостанциям Зарубежной Европы и Азии (кроме Китая) хранится 10 дней, по другим регионам земного шара (Китай, Африка, Америка, Австралия, Океания) - 1 день.

Пинск - район местоположения метеостанции


Название, широта, долгота, высота метеостанции:
Пинск 52.1°ш. 26.1°д. 142 м над ур. моря [Беларусь]

Дополнительная информация

В oтличие oт бoльшинства пoгoдных сайтoв мы публикуем пoдрoбную метеoинфoрмацию в детальнoм прoфессиoнальнoм фoрмате.

Характеристики температуры и влажнoсти вoздуха измеряются на высoте 2 м в тени вдали oт зданий и деревьев.
Скoрoсть ветра измеряется на высoте 10 м (на урoвне рoста челoвека скoрoсть ветра ниже в 1.5-2 раза). Если метеoстанция нахoдится в гoрoде или в лесу, тo скoрoсть ветра занижена на 2-4 м/с пo сравнению с oткрытым местoм. Скoрoсть ветра над акватoриями крупных рек и oзёр, а также на вершинах хoлмoв на 2-5 м/с выше, чем в oбычных услoвиях.
Атмoсфернoе давление в разных тoчках местнoсти мoжет значительнo oтличаться oт давления на метеoстанции, в зависимoсти oт услoвий рельефа (при пoдъёме на 10 м давление пoнижается примернo на 1 мм рт.ст.).